Tracking 31027 objects as of 19-Jul-2025
HD Live streaming from Space Station
objects crossing your sky now

STARLINK-31378

Track STARLINK-31378 now!
10-day predictions
STARLINK-31378 is classified as:


NORAD ID: 58932
Int'l Code: 2024-027B
Perigee: 481.7 km
Apogee: 483.1 km
Inclination: 53.2 °
Period: 94.1 minutes
Semi major axis: 6853 km
RCS: Unknown
Launch date: February 10, 2024
Source: United States (US)
Launch site: AIR FORCE WESTERN TEST RANGE (AFWTR)
Your satellite tracking list
STARLINK-3674
Track 1 satellite(s)




NASA's NSSDC Master Catalog

Two Line Element Set (TLE):
1 58932U 24027B   25199.62911199 -.00000632  00000-0 -92331-5 0  9992
2 58932  53.1618 316.7408 0001038  83.0414 277.0705 15.30187683 81496
Source of the keplerian elements: AFSPC